EWG92N EGLL-EDDH

Flight info

Callsign EWG92N
Flight time 1h 16m
Altitude 37000
Route BPK Q295 SOMVA DCT MAVAS DCT GASTU DCT OSTOR T904 RIBSO RIBSO3S
Aircraft A20N/M-SDE2E3FGHIJ1RWXY/LB1

Departure

Time 2026-04-25 11:32
Airport London Heathrow Airport (EGLL)

Arrival

Time 2026-04-25 12:48
Airport Hamburg Helmut Schmidt Airport (EDDH)
Time Latitude Longitude Altitude Speed Heading
2026-04-25 11:09 51.46819 -0.44675 78 ft 0 kts 268°
2026-04-25 11:24 51.46820 -0.44653 78 ft 2 kts 268°
2026-04-25 11:24 51.46821 -0.44631 78 ft 2 kts 268°
2026-04-25 11:25 51.46821 -0.44614 78 ft 0 kts 268°
2026-04-25 11:25 51.46823 -0.44593 78 ft 2 kts 246°
2026-04-25 11:25 51.46831 -0.44572 78 ft 2 kts 224°
2026-04-25 11:25 51.46844 -0.44559 78 ft 2 kts 201°
2026-04-25 11:26 51.46855 -0.44554 78 ft 0 kts 183°
2026-04-25 11:26 51.46862 -0.44554 78 ft 1 kts 180°
2026-04-25 11:28 51.46861 -0.44553 78 ft 0 kts 182°
2026-04-25 11:28 51.46860 -0.44553 78 ft 0 kts 186°
2026-04-25 11:29 51.46858 -0.44553 78 ft 1 kts 186°
2026-04-25 11:29 51.46832 -0.44555 78 ft 5 kts 183°
2026-04-25 11:29 51.46793 -0.44556 78 ft 6 kts 180°
2026-04-25 11:29 51.46756 -0.44522 78 ft 7 kts 107°
2026-04-25 11:30 51.46752 -0.44436 78 ft 8 kts 90°
2026-04-25 11:30 51.46753 -0.44340 78 ft 9 kts 90°
2026-04-25 11:30 51.46753 -0.44238 78 ft 10 kts 90°
2026-04-25 11:30 51.46752 -0.44120 78 ft 11 kts 99°
2026-04-25 11:31 51.46695 -0.44055 78 ft 11 kts 178°
2026-04-25 11:31 51.46613 -0.44052 78 ft 12 kts 180°
2026-04-25 11:31 51.46524 -0.44055 78 ft 12 kts 184°
2026-04-25 11:31 51.46493 -0.44144 78 ft 8 kts 270°
2026-04-25 11:32 51.46491 -0.44496 78 ft 67 kts 270°
2026-04-25 11:32 51.46486 -0.45626 78 ft 131 kts 270°
2026-04-25 11:32 51.46475 -0.47295 170 ft 170 kts 269°
2026-04-25 11:32 51.46462 -0.49001 718 ft 170 kts 269°
2026-04-25 11:33 51.46460 -0.50770 1316 ft 173 kts 275°
2026-04-25 11:33 51.46761 -0.52472 1738 ft 181 kts 297°
2026-04-25 11:33 51.47340 -0.54134 2114 ft 195 kts 302°
2026-04-25 11:33 51.47998 -0.55896 2511 ft 208 kts 301°
2026-04-25 11:34 51.48706 -0.57879 2856 ft 228 kts 300°
2026-04-25 11:34 51.49416 -0.59978 3327 ft 243 kts 299°
2026-04-25 11:34 51.50167 -0.62269 3822 ft 257 kts 299°
2026-04-25 11:34 51.51118 -0.64370 4397 ft 264 kts 322°
2026-04-25 11:35 51.52631 -0.65584 5146 ft 266 kts 349°
2026-04-25 11:35 51.54299 -0.65562 5915 ft 267 kts 13°
2026-04-25 11:35 51.55882 -0.64579 6592 ft 271 kts 30°
2026-04-25 11:35 51.57286 -0.62782 7028 ft 275 kts 47°
2026-04-25 11:36 51.58397 -0.60510 7200 ft 277 kts 53°
2026-04-25 11:36 51.59428 -0.58204 7203 ft 277 kts 53°
2026-04-25 11:36 51.60451 -0.55926 7411 ft 284 kts 52°
2026-04-25 11:36 51.61538 -0.53518 8215 ft 285 kts 54°
2026-04-25 11:37 51.62493 -0.51129 9050 ft 285 kts 58°
2026-04-25 11:37 51.63376 -0.48499 9794 ft 288 kts 62°
2026-04-25 11:37 51.64200 -0.45835 10499 ft 292 kts 62°
2026-04-25 11:37 51.65056 -0.43040 11001 ft 304 kts 62°
2026-04-25 11:38 51.65951 -0.40116 11410 ft 318 kts 62°
2026-04-25 11:38 51.66871 -0.37120 11871 ft 329 kts 62°
2026-04-25 11:38 51.67834 -0.33979 12524 ft 334 kts 63°
2026-04-25 11:38 51.68816 -0.30782 13036 ft 338 kts 63°
2026-04-25 11:39 51.69791 -0.27605 13705 ft 341 kts 63°
2026-04-25 11:39 51.70752 -0.24468 14392 ft 343 kts 63°
2026-04-25 11:39 51.71773 -0.21129 15049 ft 347 kts 63°
2026-04-25 11:39 51.72803 -0.17762 15673 ft 352 kts 63°
2026-04-25 11:40 51.73512 -0.15443 16101 ft 354 kts 63°
2026-04-25 11:40 51.74698 -0.10823 16939 ft 360 kts 72°
2026-04-25 11:40 51.75294 -0.07003 17548 ft 364 kts 79°
2026-04-25 11:40 51.75669 -0.02989 18135 ft 368 kts 82°
2026-04-25 11:41 51.75981 0.00962 18710 ft 372 kts 82°
2026-04-25 11:41 51.76294 0.05002 19275 ft 376 kts 82°
2026-04-25 11:41 51.76618 0.09085 19835 ft 380 kts 82°
2026-04-25 11:41 51.76954 0.13252 20381 ft 383 kts 82°
2026-04-25 11:42 51.77291 0.17383 20907 ft 387 kts 82°
2026-04-25 11:42 51.77632 0.21554 21438 ft 390 kts 82°
2026-04-25 11:42 51.77965 0.25661 21956 ft 393 kts 82°
2026-04-25 11:42 51.78313 0.29962 22472 ft 396 kts 82°
2026-04-25 11:43 51.78644 0.34067 22940 ft 400 kts 82°
2026-04-25 11:43 51.78970 0.38143 23397 ft 403 kts 82°
2026-04-25 11:43 51.79304 0.42315 23867 ft 406 kts 82°
2026-04-25 11:43 51.79645 0.46626 24340 ft 409 kts 82°
2026-04-25 11:44 51.79990 0.50992 24782 ft 412 kts 82°
2026-04-25 11:44 51.80335 0.55387 25225 ft 415 kts 82°
2026-04-25 11:44 51.80679 0.59701 25663 ft 417 kts 81°
2026-04-25 11:44 51.81200 0.64136 26081 ft 420 kts 75°
2026-04-25 11:45 51.82025 0.68695 26501 ft 423 kts 70°
2026-04-25 11:45 51.83026 0.72850 26903 ft 425 kts 66°
2026-04-25 11:45 51.84110 0.76970 27290 ft 427 kts 65°
2026-04-25 11:45 51.85263 0.81310 27687 ft 430 kts 65°
2026-04-25 11:46 51.86427 0.85738 28075 ft 432 kts 66°
2026-04-25 11:46 51.87564 0.90120 28461 ft 434 kts 66°
2026-04-25 11:46 51.88694 0.94516 28833 ft 436 kts 66°
2026-04-25 11:46 51.89775 0.98728 29158 ft 439 kts 66°
2026-04-25 11:47 51.90865 1.02988 29492 ft 441 kts 66°
2026-04-25 11:47 51.91929 1.07150 29800 ft 444 kts 66°
2026-04-25 11:47 51.92978 1.11263 30111 ft 445 kts 66°
2026-04-25 11:47 51.94043 1.15446 30417 ft 447 kts 66°
2026-04-25 11:48 51.95158 1.19834 30737 ft 449 kts 66°
2026-04-25 11:48 51.96204 1.23958 31102 ft 449 kts 66°
2026-04-25 11:48 51.97270 1.28165 31505 ft 448 kts 66°
2026-04-25 11:48 51.98333 1.32369 31877 ft 447 kts 66°
2026-04-25 11:49 51.99393 1.36571 32224 ft 447 kts 66°
2026-04-25 11:49 52.00436 1.40711 32560 ft 447 kts 66°
2026-04-25 11:49 52.01475 1.44845 32895 ft 446 kts 66°
2026-04-25 11:49 52.02495 1.48907 33224 ft 445 kts 66°
2026-04-25 11:50 52.03178 1.51632 33436 ft 445 kts 66°
2026-04-25 11:50 52.04570 1.57195 33859 ft 444 kts 66°
2026-04-25 11:50 52.05584 1.61258 34162 ft 443 kts 66°
2026-04-25 11:50 52.06569 1.65210 34454 ft 442 kts 67°
2026-04-25 11:51 52.07568 1.69223 34739 ft 442 kts 66°
2026-04-25 11:51 52.08587 1.73333 35012 ft 441 kts 67°
2026-04-25 11:51 52.09554 1.77237 35265 ft 440 kts 66°
2026-04-25 11:51 52.10516 1.81125 35499 ft 439 kts 66°
2026-04-25 11:52 52.11521 1.85200 35716 ft 439 kts 66°
2026-04-25 11:52 52.12559 1.89411 35910 ft 440 kts 66°
2026-04-25 11:52 52.13571 1.93523 36091 ft 441 kts 66°
2026-04-25 11:52 52.14572 1.97602 36266 ft 441 kts 66°
2026-04-25 11:53 52.15616 2.01862 36435 ft 442 kts 66°
2026-04-25 11:53 52.16656 2.06113 36609 ft 442 kts 66°
2026-04-25 11:53 52.17650 2.10185 36772 ft 443 kts 66°
2026-04-25 11:53 52.18674 2.14384 36933 ft 443 kts 66°
2026-04-25 11:54 52.19690 2.18556 37086 ft 444 kts 66°
2026-04-25 11:54 52.20664 2.22571 37196 ft 445 kts 66°
2026-04-25 11:55 52.23618 2.34780 37199 ft 446 kts 66°
2026-04-25 11:55 52.25598 2.43005 37190 ft 446 kts 66°
2026-04-25 11:56 52.27655 2.51587 37185 ft 446 kts 66°
2026-04-25 11:56 52.29702 2.60159 37183 ft 446 kts 66°
2026-04-25 11:57 52.31639 2.69515 37187 ft 448 kts 72°
2026-04-25 11:57 52.33306 2.79002 37182 ft 448 kts 72°
2026-04-25 11:58 52.34972 2.88567 37191 ft 448 kts 72°
2026-04-25 11:58 52.36582 2.97801 37192 ft 448 kts 71°
2026-04-25 11:59 52.38213 3.07189 37193 ft 448 kts 71°
2026-04-25 11:59 52.39940 3.16362 37200 ft 446 kts 67°
2026-04-25 12:00 52.43443 3.29547 37203 ft 444 kts 62°
2026-04-25 12:01 52.47107 3.42495 37200 ft 444 kts 62°
2026-04-25 12:01 52.49579 3.51311 37195 ft 443 kts 62°
2026-04-25 12:02 52.53187 3.64270 37193 ft 443 kts 62°
2026-04-25 12:02 52.55637 3.73104 37194 ft 443 kts 62°
2026-04-25 12:03 52.58061 3.81886 36920 ft 443 kts 62°
2026-04-25 12:03 52.60413 3.90440 37129 ft 445 kts 62°
2026-04-25 12:04 52.62848 3.99328 37193 ft 445 kts 62°
2026-04-25 12:04 52.65192 4.07920 37199 ft 445 kts 62°
2026-04-25 12:05 52.67585 4.16721 37197 ft 445 kts 62°
2026-04-25 12:05 52.69958 4.25482 37193 ft 445 kts 62°
2026-04-25 12:06 52.72309 4.34196 37190 ft 445 kts 62°
2026-04-25 12:06 52.74652 4.42912 37194 ft 445 kts 62°
2026-04-25 12:07 52.76972 4.51580 37192 ft 445 kts 62°
2026-04-25 12:07 52.79321 4.60379 37184 ft 444 kts 62°
2026-04-25 12:08 52.81661 4.69186 37174 ft 445 kts 62°
2026-04-25 12:08 52.84112 4.78446 37178 ft 445 kts 62°
2026-04-25 12:09 52.86574 4.87788 37177 ft 445 kts 62°
2026-04-25 12:09 52.88991 4.96993 37169 ft 444 kts 62°
2026-04-25 12:10 52.91347 5.06005 37173 ft 444 kts 62°
2026-04-25 12:10 52.93615 5.14710 37165 ft 444 kts 62°
2026-04-25 12:11 52.95859 5.23354 37155 ft 445 kts 62°
2026-04-25 12:11 52.98130 5.32139 37158 ft 445 kts 62°
2026-04-25 12:12 53.00016 5.39468 37155 ft 446 kts 62°
2026-04-25 12:12 53.02631 5.49667 37154 ft 446 kts 61°
2026-04-25 12:13 53.04871 5.58440 37149 ft 447 kts 61°
2026-04-25 12:13 53.07100 5.67196 37148 ft 446 kts 62°
2026-04-25 12:14 53.09369 5.76142 37150 ft 447 kts 62°
2026-04-25 12:14 53.11530 5.84702 37148 ft 449 kts 62°
2026-04-25 12:15 53.13676 5.93238 37146 ft 448 kts 62°
2026-04-25 12:15 53.15768 6.01595 37147 ft 448 kts 62°
2026-04-25 12:16 53.17832 6.09866 37149 ft 447 kts 62°
2026-04-25 12:16 53.19893 6.18154 37135 ft 447 kts 62°
2026-04-25 12:17 53.21991 6.26617 37135 ft 447 kts 62°
2026-04-25 12:17 53.24011 6.34804 37132 ft 448 kts 62°
2026-04-25 12:18 53.26033 6.43029 37131 ft 448 kts 62°
2026-04-25 12:18 53.28063 6.51316 37129 ft 448 kts 62°
2026-04-25 12:19 53.31187 6.64138 37133 ft 447 kts 61°
2026-04-25 12:20 53.33315 6.72908 37127 ft 449 kts 62°
2026-04-25 12:20 53.35394 6.81512 37127 ft 448 kts 62°
2026-04-25 12:20 53.36436 6.85838 36965 ft 449 kts 62°
2026-04-25 12:21 53.37480 6.90181 36692 ft 447 kts 62°
2026-04-25 12:21 53.38500 6.94440 36437 ft 445 kts 62°
2026-04-25 12:21 53.39514 6.98679 36085 ft 444 kts 62°
2026-04-25 12:21 53.40554 7.03029 35578 ft 445 kts 62°
2026-04-25 12:22 53.41561 7.07246 35055 ft 447 kts 62°
2026-04-25 12:22 53.42581 7.11532 34483 ft 449 kts 62°
2026-04-25 12:22 53.43589 7.15765 33883 ft 450 kts 62°
2026-04-25 12:22 53.44632 7.20159 33289 ft 451 kts 62°
2026-04-25 12:23 53.45642 7.24424 32712 ft 451 kts 62°
2026-04-25 12:23 53.46714 7.28963 32110 ft 452 kts 62°
2026-04-25 12:23 53.47747 7.33348 31503 ft 453 kts 62°
2026-04-25 12:23 53.48808 7.37856 30876 ft 454 kts 62°
2026-04-25 12:24 53.49879 7.42417 30251 ft 454 kts 62°
2026-04-25 12:24 53.50943 7.46967 29753 ft 451 kts 62°
2026-04-25 12:24 53.52070 7.51806 29309 ft 446 kts 62°
2026-04-25 12:24 53.53193 7.56628 28847 ft 442 kts 62°
2026-04-25 12:25 53.53933 7.59812 28541 ft 439 kts 62°
2026-04-25 12:25 53.55294 7.65669 27959 ft 434 kts 63°
2026-04-25 12:25 53.56354 7.70242 27511 ft 431 kts 63°
2026-04-25 12:25 53.57344 7.74521 27088 ft 428 kts 63°
2026-04-25 12:26 53.58328 7.78782 26673 ft 424 kts 63°
2026-04-25 12:26 53.59289 7.82951 26255 ft 422 kts 63°
2026-04-25 12:26 53.60191 7.87110 25914 ft 423 kts 69°
2026-04-25 12:26 53.60498 7.91638 25656 ft 434 kts 90°
2026-04-25 12:27 53.60075 7.96204 25432 ft 438 kts 99°
2026-04-25 12:27 53.59426 8.00721 25195 ft 438 kts 101°
2026-04-25 12:27 53.58755 8.05263 24955 ft 436 kts 101°
2026-04-25 12:27 53.58119 8.09838 24714 ft 435 kts 99°
2026-04-25 12:28 53.57514 8.14508 24471 ft 433 kts 98°
2026-04-25 12:28 53.56954 8.19058 24233 ft 432 kts 98°
2026-04-25 12:28 53.56420 8.23539 23891 ft 428 kts 98°
2026-04-25 12:28 53.55909 8.27904 23028 ft 428 kts 98°
2026-04-25 12:29 53.55391 8.32384 21951 ft 436 kts 98°
2026-04-25 12:29 53.54866 8.36934 21286 ft 434 kts 98°
2026-04-25 12:29 53.54355 8.41323 20573 ft 429 kts 98°
2026-04-25 12:29 53.53827 8.45863 19898 ft 429 kts 98°
2026-04-25 12:30 53.53300 8.50378 19393 ft 426 kts 98°
2026-04-25 12:30 53.52780 8.54824 18934 ft 423 kts 98°
2026-04-25 12:30 53.52248 8.59374 18459 ft 420 kts 98°
2026-04-25 12:30 53.51739 8.63702 18006 ft 418 kts 98°
2026-04-25 12:31 53.51218 8.68116 17562 ft 415 kts 99°
2026-04-25 12:31 53.50696 8.72529 17075 ft 413 kts 99°
2026-04-25 12:31 53.50174 8.76930 16609 ft 410 kts 99°
2026-04-25 12:31 53.49672 8.81148 16166 ft 408 kts 99°
2026-04-25 12:32 53.49169 8.85351 15721 ft 405 kts 99°
2026-04-25 12:32 53.48680 8.89431 15295 ft 403 kts 99°
2026-04-25 12:32 53.48144 8.93876 14799 ft 401 kts 99°
2026-04-25 12:32 53.47636 8.98083 14332 ft 399 kts 98°
2026-04-25 12:33 53.47142 9.02174 13911 ft 396 kts 99°
2026-04-25 12:33 53.46647 9.06249 13505 ft 393 kts 98°
2026-04-25 12:33 53.46159 9.10250 13065 ft 391 kts 98°
2026-04-25 12:33 53.45654 9.14387 12638 ft 388 kts 98°
2026-04-25 12:34 53.45172 9.18325 12225 ft 385 kts 98°
2026-04-25 12:34 53.44685 9.22291 11797 ft 383 kts 98°
2026-04-25 12:34 53.44200 9.26217 11383 ft 380 kts 98°
2026-04-25 12:34 53.43866 9.28916 11092 ft 379 kts 98°
2026-04-25 12:35 53.43210 9.34212 10440 ft 378 kts 98°
2026-04-25 12:35 53.42725 9.38117 10138 ft 371 kts 98°
2026-04-25 12:35 53.42240 9.41999 10012 ft 358 kts 98°
2026-04-25 12:35 53.41782 9.45647 9873 ft 346 kts 98°
2026-04-25 12:36 53.41340 9.49161 9540 ft 334 kts 98°
2026-04-25 12:36 53.40913 9.52552 9229 ft 321 kts 98°
2026-04-25 12:36 53.40498 9.55860 8912 ft 315 kts 98°
2026-04-25 12:36 53.40103 9.59004 8640 ft 312 kts 98°
2026-04-25 12:37 53.39700 9.62271 8339 ft 310 kts 96°
2026-04-25 12:37 53.39372 9.65624 8031 ft 311 kts 95°
2026-04-25 12:37 53.39093 9.68817 7654 ft 311 kts 95°
2026-04-25 12:37 53.38829 9.71941 7321 ft 310 kts 94°
2026-04-25 12:38 53.38565 9.75077 7017 ft 308 kts 95°
2026-04-25 12:38 53.38310 9.78150 6705 ft 306 kts 95°
2026-04-25 12:38 53.38063 9.81134 6394 ft 304 kts 95°
2026-04-25 12:38 53.37817 9.84117 6095 ft 303 kts 94°
2026-04-25 12:39 53.37571 9.87130 5797 ft 301 kts 95°
2026-04-25 12:39 53.37353 9.90270 5477 ft 297 kts 87°
2026-04-25 12:39 53.37577 9.93138 5156 ft 288 kts 69°
2026-04-25 12:39 53.38075 9.95844 4812 ft 280 kts 65°
2026-04-25 12:40 53.38633 9.98517 4550 ft 267 kts 65°
2026-04-25 12:40 53.39175 10.01052 4276 ft 260 kts 64°
2026-04-25 12:40 53.39713 10.03548 4112 ft 252 kts 64°
2026-04-25 12:40 53.40216 10.05885 3895 ft 245 kts 64°
2026-04-25 12:41 53.40723 10.08227 3579 ft 246 kts 64°
2026-04-25 12:41 53.41295 10.10479 3307 ft 240 kts 50°
2026-04-25 12:41 53.42304 10.12157 3025 ft 225 kts 20°
2026-04-25 12:41 53.43551 10.12919 2974 ft 217 kts
2026-04-25 12:42 53.44815 10.13412 2970 ft 218 kts
2026-04-25 12:42 53.45231 10.13557 2967 ft 217 kts
2026-04-25 12:42 53.47199 10.13211 2952 ft 189 kts 333°
2026-04-25 12:42 53.48169 10.12489 2947 ft 175 kts 329°
2026-04-25 12:43 53.49058 10.11744 3005 ft 157 kts 328°
2026-04-25 12:43 53.49864 10.11042 2910 ft 154 kts 327°
2026-04-25 12:43 53.51490 10.09612 2586 ft 151 kts 327°
2026-04-25 12:44 53.52290 10.08913 2406 ft 150 kts 327°
2026-04-25 12:44 53.53080 10.08226 2232 ft 151 kts 327°
2026-04-25 12:44 53.54541 10.06966 1902 ft 127 kts 327°
2026-04-25 12:45 53.54992 10.06577 1788 ft 124 kts 326°
2026-04-25 12:45 53.55877 10.05806 1603 ft 123 kts 326°
2026-04-25 12:45 53.57193 10.04664 1337 ft 122 kts 327°
2026-04-25 12:46 53.57826 10.04117 1195 ft 122 kts 327°
2026-04-25 12:46 53.58470 10.03563 1054 ft 122 kts 325°
2026-04-25 12:46 53.59114 10.03004 909 ft 122 kts 326°
2026-04-25 12:46 53.59753 10.02450 764 ft 121 kts 326°
2026-04-25 12:47 53.60400 10.01892 621 ft 121 kts 326°
2026-04-25 12:47 53.61037 10.01339 491 ft 121 kts 328°
2026-04-25 12:47 53.61676 10.00785 343 ft 122 kts 324°
2026-04-25 12:47 53.62329 10.00224 201 ft 124 kts 325°
2026-04-25 12:48 53.62966 9.99659 85 ft 120 kts 329°
2026-04-25 12:48 53.63594 9.99111 62 ft 89 kts 331°
2026-04-25 12:48 53.63976 9.98782 62 ft 53 kts 333°
2026-04-25 12:48 53.64256 9.98538 62 ft 47 kts 333°
2026-04-25 12:49 53.64503 9.98371 62 ft 42 kts 354°
2026-04-25 12:49 53.64655 9.98387 62 ft 15 kts 11°
2026-04-25 12:49 53.64694 9.98493 62 ft 13 kts 129°
2026-04-25 12:49 53.64625 9.98565 62 ft 14 kts 152°
2026-04-25 12:50 53.64548 9.98633 62 ft 14 kts 153°
2026-04-25 12:50 53.64473 9.98696 62 ft 15 kts 154°
2026-04-25 12:50 53.64394 9.98763 62 ft 15 kts 153°
2026-04-25 12:50 53.64316 9.98830 62 ft 15 kts 152°
2026-04-25 12:51 53.64236 9.98901 62 ft 15 kts 153°
2026-04-25 12:51 53.64157 9.98969 62 ft 15 kts 152°
2026-04-25 12:51 53.64079 9.99040 62 ft 16 kts 152°
2026-04-25 12:51 53.63997 9.99110 62 ft 16 kts 154°
2026-04-25 12:52 53.63913 9.99180 62 ft 16 kts 153°
2026-04-25 12:52 53.63831 9.99251 62 ft 16 kts 148°
2026-04-25 12:52 53.63761 9.99355 62 ft 16 kts 131°
2026-04-25 12:52 53.63706 9.99484 62 ft 17 kts 125°
2026-04-25 12:53 53.63648 9.99618 62 ft 17 kts 126°
2026-04-25 12:53 53.63589 9.99752 62 ft 16 kts 127°
2026-04-25 12:53 53.63531 9.99887 62 ft 16 kts 126°
2026-04-25 12:53 53.63473 10.00019 62 ft 16 kts 126°
2026-04-25 12:54 53.63414 10.00141 62 ft 16 kts 148°
2026-04-25 12:54 53.63322 10.00168 62 ft 15 kts 176°
2026-04-25 12:54 53.63238 10.00176 62 ft 13 kts 177°
2026-04-25 12:54 53.63163 10.00185 62 ft 12 kts 175°
2026-04-25 12:55 53.63096 10.00194 62 ft 9 kts 170°
2026-04-25 12:55 53.63071 10.00235 62 ft 9 kts 118°
2026-04-25 12:55 53.63039 10.00327 62 ft 4 kts 123°
2026-04-25 12:55 53.63031 10.00347 62 ft 0 kts 122°